Ithaca, NY

8:39 PM EDT on August 19, 2017 (GMT -0400)
Tompkins County

Weather History for KITH - November, 2011

Change the Weather History Date:

Thursday, November 10, 2011

  Actual Average Record
Temperature  
Mean Temperature 45 °F -  
Max Temperature 52 °F 48 °F 74 °F (1931)
Min Temperature 38 °F 33 °F 15 °F (1991)
Degree Days  
Heating Degree Days 20    
Moisture  
Dew Point 38 °F    
Average Humidity 74    
Maximum Humidity 93    
Minimum Humidity 63    
Precipitation  
Precipitation 0.00 in - - ()
Sea Level Pressure  
Sea Level Pressure 29.86 in    
Wind  
Wind Speed 10 mph (WNW)    
Max Wind Speed 16 mph    
Max Gust Speed 22 mph    
Visibility 10 miles    
Events Rain    
Averages and records for this station are not official NWS values.
T = Trace of Precipitation, MM = Missing Value Source: NWS Daily Summary

Daily Weather History Graph

Daily Weather History Graph

Search for Another Location

Airport or City:

Trip Planner

Search our weather history database for the weather conditions in past years. The results will help you decide how hot, cold, wet, or windy it might be!

Date:

Astronomy

Nov. 10, 2011 Rise Set
Actual Time 6:50 AM EST 4:48 PM EST
Civil Twilight 6:20 AM EST 5:18 PM EST
Nautical Twilight 5:46 AM EST 5:52 PM EST
Astronomical Twilight 5:13 AM EST 6:25 PM EST
Moon 4:33 PM EST (11/10) 6:41 AM EST (11/10)
Length of Visible Light 10h 58m
Length of Day
9h 58m
Full, 100% of the Moon is Illuminated
Nov 10
Full
Nov 10
Full
Nov 18
Last Quarter
Nov 25
New
Dec 2
First Quarter

Hourly Weather History & Observations

Time (EST) Temp. Windchill Dew Point Humidity Pressure Visibility Wind Dir Wind Speed Gust Speed Precip Events Conditions
12:56 AM 52.0 °F - 41.0 °F 66% 29.88 in 10.0 mi South 16.1 mph - N/A   Clear
1:56 AM 52.9 °F - 43.0 °F 69% 29.86 in 10.0 mi South 15.0 mph 21.9 mph N/A   Mostly Cloudy
2:56 AM 52.9 °F - 43.9 °F 71% 29.86 in 10.0 mi SSE 10.4 mph - N/A   Overcast
3:56 AM 52.9 °F - 45.9 °F 77% 29.86 in 10.0 mi SSE 8.1 mph - 0.00 in Rain Light Rain
4:56 AM 50.9 °F - 47.8 °F 89% 29.87 in 10.0 mi South 8.1 mph - 0.00 in Rain Light Rain
5:56 AM 52.0 °F - 48.9 °F 89% 29.87 in 10.0 mi SW 4.6 mph - 0.00 in Rain Light Rain
6:27 AM 48.2 °F - 46.4 °F 93% 29.89 in 10.0 mi West 8.1 mph - 0.00 in   Overcast
7:56 AM 46.9 °F - 41.9 °F 83% 29.93 in 10.0 mi NNW 6.9 mph - N/A   Overcast
8:56 AM 45.0 °F 40.6 °F 37.9 °F 76% 29.94 in 10.0 mi NW 8.1 mph - N/A   Overcast
9:56 AM 45.9 °F 44.6 °F 36.9 °F 71% 29.92 in 10.0 mi Variable 3.5 mph - N/A   Overcast
11:20 AM 46.4 °F 42.4 °F 35.6 °F 66% 29.90 in 10.0 mi West 8.1 mph - N/A   Mostly Cloudy
11:56 AM 45.9 °F 41.2 °F 34.0 °F 63% 29.89 in 10.0 mi West 9.2 mph - N/A   Mostly Cloudy
12:56 PM 45.9 °F 42.9 °F 34.0 °F 63% 29.87 in 10.0 mi NW 5.8 mph - 0.00 in Rain Light Rain
1:56 PM 45.0 °F 41.8 °F 34.0 °F 65% 29.86 in 10.0 mi NW 5.8 mph - 0.00 in Rain Light Rain
2:56 PM 45.0 °F 41.2 °F 34.0 °F 65% 29.84 in 10.0 mi North 6.9 mph - 0.00 in Rain Light Rain
3:56 PM 43.9 °F 41.3 °F 32.9 °F 65% 29.83 in 10.0 mi NNW 4.6 mph - 0.00 in   Scattered Clouds
4:56 PM 41.9 °F 40.0 °F 32.9 °F 70% 29.83 in 10.0 mi NNW 3.5 mph - N/A   Scattered Clouds
5:56 PM 41.0 °F 38.0 °F 34.0 °F 76% 29.83 in 10.0 mi NNW 4.6 mph - N/A   Mostly Cloudy
6:56 PM 41.9 °F 36.9 °F 34.0 °F 73% 29.83 in 10.0 mi NNW 8.1 mph - N/A   Overcast
7:56 PM 39.9 °F 34.5 °F 34.0 °F 79% 29.82 in 10.0 mi NNW 8.1 mph - 0.00 in   Overcast
9:56 PM 38.8 °F 34.6 °F 32.9 °F 79% 29.81 in 10.0 mi NNW 5.8 mph - N/A   Overcast
10:56 PM 38.8 °F 33.8 °F 32.9 °F 79% 29.79 in 10.0 mi NW 6.9 mph - N/A   Mostly Cloudy
11:56 PM 38.8 °F 32.6 °F 32.0 °F 76% 29.77 in 10.0 mi WNW 9.2 mph - 0.00 in   Overcast